| time (UTC) | temp C | wind direction | speed KPH | gust KPH | rain 1hr cm | rain 24hr cm | rain mn cm | humidity % | barometer mb |
| 20260902222515 | 30 | 92 | 3.2 | 4.8 | 0.00 | 0.00 | 0.00 | 30 | 1020.8 |
| 20260902221515 | 30 | 101 | 3.2 | 4.8 | 0.00 | 0.00 | 0.00 | 29 | 1021.0 |
| 20260902220516 | 30 | 87 | 1.6 | 4.8 | 0.00 | 0.00 | 0.00 | 31 | 1021.1 |
| 20260902215516 | 30 | 88 | 1.6 | 6.4 | 0.00 | 0.00 | 0.00 | 32 | 1021.3 |
| 20260902214516 | 30 | 88 | 3.2 | 4.8 | 0.00 | 0.00 | 0.00 | 31 | 1021.5 |
| 20260902213617 | 30 | 87 | 3.2 | 6.4 | 0.00 | 0.00 | 0.00 | 30 | 1021.7 |
| 20260902212517 | 30 | 99 | 1.6 | 6.4 | 0.00 | 0.00 | 0.00 | 30 | 1021.8 |
| 20260902211515 | 30 | 99 | 1.6 | 4.8 | 0.00 | 0.00 | 0.00 | 31 | 1022.0 |
| 20260902210535 | 30 | 86 | 1.6 | 6.4 | 0.00 | 0.00 | 0.00 | 30 | 1022.1 |
| 20260902205516 | 31 | 95 | 1.6 | 4.8 | 0.00 | 0.00 | 0.00 | 29 | 1022.2 |
| 20260902204516 | 30 | 92 | 0.0 | 3.2 | 0.00 | 0.00 | 0.00 | 30 | 1022.4 |
| 20260902203536 | 31 | 91 | 1.6 | 3.2 | 0.00 | 0.00 | 0.00 | 29 | 1022.4 |
| 20260902202517 | 30 | 102 | 1.6 | 3.2 | 0.00 | 0.00 | 0.00 | 30 | 1022.5 |
| 20260902201517 | 31 | 91 | 1.6 | 3.2 | 0.00 | 0.00 | 0.00 | 29 | 1022.7 |
| 20260902200515 | 30 | 268 | 0.0 | 1.6 | 0.00 | 0.00 | 0.00 | 30 | 1022.8 |
| 20260902195515 | 30 | 92 | 1.6 | 3.2 | 0.00 | 0.00 | 0.00 | 30 | 1022.9 |
| 20260902194515 | 30 | 95 | 0.0 | 3.2 | 0.00 | 0.00 | 0.00 | 30 | 1023.0 |
| 20260902193516 | 30 | 159 | 0.0 | 3.2 | 0.00 | 0.00 | 0.00 | 30 | 1023.0 |
| 20260902192516 | 30 | 100 | 0.0 | 3.2 | 0.00 | 0.00 | 0.00 | 31 | 1023.1 |
| 20260902191517 | 29 | 294 | 0.0 | 3.2 | 0.00 | 0.00 | 0.00 | 30 | 1023.4 |
| 20260902190517 | 30 | 90 | 0.0 | 1.6 | 0.00 | 0.00 | 0.00 | 31 | 1023.5 |
| 20260902185515 | 30 | 301 | 1.6 | 6.4 | 0.00 | 0.00 | 0.00 | 32 | 1023.7 |
| 20260902184515 | 29 | 280 | 0.0 | 3.2 | 0.00 | 0.00 | 0.00 | 33 | 1023.8 |
| 20260902183516 | 28 | 114 | 0.0 | 3.2 | 0.00 | 0.00 | 0.00 | 32 | 1024.0 |
| 20260902182516 | 28 | 330 | 0.0 | 1.6 | 0.00 | 0.00 | 0.00 | 33 | 1024.1 |
| 20260902181556 | 27 | 2 | 0.0 | 3.2 | 0.00 | 0.00 | 0.00 | 34 | 1024.4 |
| 20260902180517 | 27 | 115 | 0.0 | 3.2 | 0.00 | 0.00 | 0.00 | 35 | 1024.5 |
| 20260902175557 | 27 | 102 | 1.6 | 3.2 | 0.00 | 0.00 | 0.00 | 35 | 1024.6 |
| 20260902174015 | 27 | 296 | 0.0 | 1.6 | 0.00 | 0.00 | 0.00 | 37 | 1024.8 |
| 20260902173016 | 26 | 334 | 0.0 | 1.6 | 0.00 | 0.00 | 0.00 | 37 | 1024.9 |
| 20260902172016 | 26 | 99 | 0.0 | 1.6 | 0.00 | 0.00 | 0.00 | 38 | 1024.9 |
| 20260902171016 | 26 | 255 | 0.0 | 3.2 | 0.00 | 0.00 | 0.00 | 39 | 1025.0 |
| 20260902170016 | 25 | 93 | 1.6 | 4.8 | 0.00 | 0.00 | 0.00 | 39 | 1025.1 |
| 20260902165017 | 25 | 93 | 0.0 | 3.2 | 0.00 | 0.00 | 0.00 | 41 | 1025.1 |
| 20260902164015 | 25 | 94 | 0.0 | 1.6 | 0.00 | 0.00 | 0.00 | 41 | 1025.1 |
| 20260902163015 | 25 | 267 | 0.0 | 3.2 | 0.00 | 0.00 | 0.00 | 42 | 1025.1 |
| 20260902162015 | 24 | 279 | 0.0 | 1.6 | 0.00 | 0.00 | 0.00 | 42 | 1025.2 |
| 20260902161016 | 23 | 0.0 | 0.0 | 0.00 | 0.00 | 0.00 | 44 | 1025.1 | |
| 20260902160016 | 23 | 0.0 | 0.0 | 0.00 | 0.00 | 0.00 | 46 | 1025.2 | |
| 20260902155017 | 23 | 129 | 0.0 | 1.6 | 0.00 | 0.00 | 0.00 | 45 | 1025.3 |
| 20260902154017 | 22 | 133 | 0.0 | 1.6 | 0.00 | 0.00 | 0.00 | 45 | 1025.5 |
| 20260902153015 | 21 | 132 | 0.0 | 1.6 | 0.00 | 0.00 | 0.00 | 48 | 1025.6 |
| 20260902152016 | 21 | 133 | 0.0 | 1.6 | 0.00 | 0.00 | 0.00 | 51 | 1025.5 |
| 20260902151016 | 20 | 133 | 0.0 | 1.6 | 0.00 | 0.00 | 0.00 | 54 | 1025.6 |
| 20260902150016 | 20 | 133 | 0.0 | 1.6 | 0.00 | 0.00 | 0.00 | 54 | 1025.6 |
| 20260902145016 | 20 | 133 | 0.0 | 1.6 | 0.00 | 0.00 | 0.00 | 55 | 1025.5 |
| 20260902144017 | 19 | 0.0 | 0.0 | 0.00 | 0.00 | 0.00 | 58 | 1025.6 | |
| 20260902143015 | 18 | 0.0 | 0.0 | 0.00 | 0.00 | 0.00 | 55 | 1025.4 | |
| 20260902142015 | 18 | 0.0 | 0.0 | 0.00 | 0.00 | 0.00 | 58 | 1025.2 | |
| 20260902141015 | 17 | 0.0 | 0.0 | 0.00 | 0.00 | 0.00 | 59 | 1025.2 | |
| 20260902140036 | 17 | 0.0 | 0.0 | 0.00 | 0.00 | 0.00 | 62 | 1025.2 | |
| 20260902135016 | 16 | 0.0 | 0.0 | 0.00 | 0.00 | 0.00 | 65 | 1025.2 | |
| 20260902134017 | 16 | 0.0 | 0.0 | 0.00 | 0.00 | 0.00 | 66 | 1025.3 | |
| 20260902133017 | 15 | 139 | 0.0 | 1.6 | 0.00 | 0.00 | 0.00 | 67 | 1025.2 |
| 20260902132015 | 15 | 0.0 | 0.0 | 0.00 | 0.00 | 0.00 | 68 | 1025.1 | |
| 20260902131035 | 15 | 0.0 | 0.0 | 0.00 | 0.00 | 0.00 | 69 | 1025.0 | |
| 20260902130015 | 14 | 0.0 | 0.0 | 0.00 | 0.00 | 0.00 | 69 | 1024.8 | |
| 20260902125016 | 15 | 139 | 0.0 | 1.6 | 0.00 | 0.00 | 0.00 | 69 | 1024.7 |
| 20260902124016 | 15 | 0.0 | 0.0 | 0.00 | 0.00 | 0.00 | 68 | 1024.7 | |
| 20260902123017 | 15 | 0.0 | 0.0 | 0.00 | 0.00 | 0.00 | 67 | 1024.5 | |
| 20260902122017 | 15 | 0.0 | 0.0 | 0.00 | 0.00 | 0.00 | 67 | 1024.5 | |
| 20260902121015 | 15 | 0.0 | 0.0 | 0.00 | 0.00 | 0.00 | 66 | 1024.4 | |
| 20260902120015 | 15 | 139 | 0.0 | 1.6 | 0.00 | 0.00 | 0.00 | 67 | 1024.4 |
| 20260902115035 | 16 | 0.0 | 0.0 | 0.00 | 0.00 | 0.00 | 68 | 1024.3 | |
| 20260902114016 | 16 | 139 | 0.0 | 1.6 | 0.00 | 0.00 | 0.00 | 65 | 1024.1 |
| 20260902113016 | 16 | 139 | 0.0 | 1.6 | 0.00 | 0.00 | 0.00 | 65 | 1024.1 |
| 20260902112017 | 16 | 140 | 0.0 | 3.2 | 0.00 | 0.00 | 0.00 | 65 | 1024.1 |
| 20260902111017 | 16 | 140 | 0.0 | 1.6 | 0.00 | 0.00 | 0.00 | 64 | 1024.0 |
| 20260902110015 | 16 | 141 | 1.6 | 3.2 | 0.00 | 0.00 | 0.00 | 64 | 1024.0 |
| 20260902105015 | 16 | 143 | 0.0 | 3.2 | 0.00 | 0.00 | 0.00 | 65 | 1024.0 |
| 20260902104036 | 15 | 139 | 1.6 | 4.8 | 0.00 | 0.00 | 0.00 | 67 | 1024.0 |
| 20260902103016 | 15 | 0.0 | 0.0 | 0.00 | 0.00 | 0.00 | 68 | 1023.9 | |
| 20260902102017 | 15 | 0.0 | 0.0 | 0.00 | 0.00 | 0.00 | 67 | 1023.9 | |
| 20260902101017 | 16 | 0.0 | 0.0 | 0.00 | 0.00 | 0.00 | 66 | 1024.0 | |
| 20260902100014 | 16 | 0.0 | 0.0 | 0.00 | 0.00 | 0.00 | 66 | 1024.0 | |
| 20260902095015 | 15 | 0.0 | 0.0 | 0.00 | 0.00 | 0.00 | 68 | 1024.1 | |
| 20260902094015 | 15 | 0.0 | 0.0 | 0.00 | 0.00 | 0.00 | 69 | 1024.1 | |
| 20260902093036 | 16 | 0.0 | 0.0 | 0.00 | 0.00 | 0.00 | 68 | 1024.0 | |
| 20260902092016 | 16 | 0.0 | 0.0 | 0.00 | 0.00 | 0.00 | 68 | 1024.0 | |
| 20260902091016 | 16 | 0.0 | 0.0 | 0.00 | 0.00 | 0.00 | 66 | 1024.0 | |
| 20260902090017 | 17 | 0.0 | 0.0 | 0.00 | 0.00 | 0.00 | 65 | 1024.0 | |
| 20260902085015 | 17 | 0.0 | 0.0 | 0.00 | 0.00 | 0.00 | 64 | 1023.9 | |
| 20260902084015 | 17 | 0.0 | 0.0 | 0.00 | 0.00 | 0.00 | 63 | 1024.0 | |
| 20260902083016 | 17 | 154 | 0.0 | 1.6 | 0.00 | 0.00 | 0.00 | 62 | 1024.0 |
| 20260902082016 | 18 | 136 | 0.0 | 3.2 | 0.00 | 0.00 | 0.00 | 62 | 1024.0 |
| 20260902081016 | 17 | 133 | 1.6 | 3.2 | 0.00 | 0.00 | 0.00 | 62 | 1024.1 |
| 20260902080037 | 17 | 133 | 1.6 | 4.8 | 0.00 | 0.00 | 0.00 | 61 | 1024.1 |
| 20260902075037 | 18 | 133 | 0.0 | 1.6 | 0.00 | 0.00 | 0.00 | 60 | 1024.2 |
| 20260902074015 | 18 | 133 | 0.0 | 3.2 | 0.00 | 0.00 | 0.00 | 59 | 1024.2 |
| 20260902073015 | 17 | 133 | 1.6 | 3.2 | 0.00 | 0.00 | 0.00 | 59 | 1024.1 |
| 20260902072015 | 18 | 133 | 0.0 | 1.6 | 0.00 | 0.00 | 0.00 | 59 | 1024.1 |
| 20260902071016 | 18 | 133 | 0.0 | 1.6 | 0.00 | 0.00 | 0.00 | 59 | 1024.0 |
| 20260902070036 | 18 | 133 | 0.0 | 1.6 | 0.00 | 0.00 | 0.00 | 60 | 1024.1 |
| 20260902065017 | 18 | 133 | 0.0 | 1.6 | 0.00 | 0.00 | 0.00 | 61 | 1024.1 |
| 20260902064017 | 18 | 133 | 0.0 | 1.6 | 0.00 | 0.00 | 0.00 | 60 | 1024.1 |
| 20260902063035 | 18 | 133 | 0.0 | 1.6 | 0.00 | 0.00 | 0.00 | 59 | 1024.1 |
| 20260902062015 | 18 | 127 | 0.0 | 1.6 | 0.00 | 0.00 | 0.00 | 59 | 1024.0 |
| 20260902061016 | 18 | 139 | 0.0 | 1.6 | 0.00 | 0.00 | 0.00 | 61 | 1024.0 |
| 20260902060016 | 19 | 139 | 0.0 | 3.2 | 0.00 | 0.00 | 0.00 | 63 | 1024.0 |
| 20260902055016 | 19 | 140 | 0.0 | 3.2 | 0.00 | 0.00 | 0.00 | 63 | 1023.9 |
| 20260902054037 | 20 | 139 | 0.0 | 3.2 | 0.00 | 0.00 | 0.00 | 62 | 1023.9 |
| 20260902053017 | 20 | 135 | 1.6 | 4.8 | 0.00 | 0.00 | 0.00 | 61 | 1023.9 |
| 20260902052015 | 20 | 141 | 3.2 | 6.4 | 0.00 | 0.00 | 0.00 | 60 | 1023.9 |
| 20260902051015 | 20 | 140 | 1.6 | 6.4 | 0.00 | 0.00 | 0.00 | 59 | 1023.9 |
| 20260902050016 | 20 | 146 | 1.6 | 8.0 | 0.00 | 0.00 | 0.00 | 58 | 1023.9 |
| 20260902045016 | 20 | 137 | 3.2 | 6.4 | 0.00 | 0.00 | 0.00 | 57 | 1023.9 |
| 20260902044016 | 20 | 141 | 3.2 | 6.4 | 0.00 | 0.00 | 0.00 | 56 | 1024.0 |
| 20260902043017 | 20 | 135 | 1.6 | 6.4 | 0.00 | 0.00 | 0.00 | 56 | 1024.1 |
| 20260902042035 | 21 | 140 | 1.6 | 6.4 | 0.00 | 0.00 | 0.00 | 56 | 1024.2 |
| 20260902041015 | 21 | 138 | 3.2 | 6.4 | 0.00 | 0.00 | 0.00 | 55 | 1024.2 |
| 20260902040015 | 21 | 137 | 3.2 | 11.3 | 0.00 | 0.00 | 0.00 | 55 | 1024.2 |
| 20260902035016 | 21 | 139 | 1.6 | 6.4 | 0.00 | 0.00 | 0.00 | 54 | 1024.2 |
| 20260902034016 | 22 | 140 | 1.6 | 8.0 | 0.00 | 0.00 | 0.00 | 54 | 1024.2 |
| 20260902033017 | 22 | 148 | 1.6 | 4.8 | 0.00 | 0.00 | 0.00 | 53 | 1024.1 |
| 20260902032017 | 22 | 140 | 1.6 | 6.4 | 0.00 | 0.00 | 0.00 | 53 | 1023.9 |
| 20260902031015 | 22 | 137 | 3.2 | 9.7 | 0.00 | 0.00 | 0.00 | 52 | 1023.9 |
| 20260902030015 | 23 | 131 | 3.2 | 11.3 | 0.00 | 0.00 | 0.00 | 51 | 1023.8 |
| 20260902025016 | 23 | 141 | 3.2 | 11.3 | 0.00 | 0.00 | 0.00 | 51 | 1023.5 |
| 20260902024016 | 22 | 136 | 3.2 | 9.7 | 0.00 | 0.03 | 0.00 | 51 | 1023.2 |
| 20260902023016 | 22 | 86 | 0.0 | 1.6 | 0.00 | 0.03 | 0.00 | 54 | 1023.0 |
| 20260902022017 | 22 | 0.0 | 0.0 | 0.00 | 0.03 | 0.00 | 53 | 1023.1 | |
| 20260902021017 | 22 | 0.0 | 0.0 | 0.00 | 0.03 | 0.00 | 52 | 1023.0 | |
| 20260902020015 | 22 | 86 | 0.0 | 1.6 | 0.00 | 0.03 | 0.00 | 52 | 1023.0 |
| 20260902015035 | 23 | 86 | 0.0 | 1.6 | 0.00 | 0.03 | 0.00 | 51 | 1022.9 |
| 20260902014016 | 23 | 0.0 | 0.0 | 0.00 | 0.03 | 0.00 | 50 | 1022.9 | |
| 20260902013016 | 23 | 0.0 | 0.0 | 0.00 | 0.03 | 0.00 | 49 | 1022.9 | |
| 20260902012016 | 24 | 0.0 | 0.0 | 0.00 | 0.03 | 0.00 | 47 | 1022.9 | |
| 20260902011017 | 25 | 86 | 0.0 | 1.6 | 0.00 | 0.03 | 0.00 | 45 | 1022.9 |
| 20260902010037 | 25 | 84 | 0.0 | 1.6 | 0.00 | 0.03 | 0.00 | 43 | 1022.8 |
| 20260902005035 | 25 | 0.0 | 0.0 | 0.00 | 0.03 | 0.00 | 42 | 1022.8 | |
| 20260902004015 | 26 | 70 | 0.0 | 1.6 | 0.00 | 0.03 | 0.00 | 41 | 1022.8 |
| 20260902003016 | 26 | 99 | 0.0 | 1.6 | 0.00 | 0.03 | 0.00 | 41 | 1022.8 |
| 20260902002016 | 27 | 0.0 | 0.0 | 0.00 | 0.03 | 0.00 | 39 | 1022.8 | |
| 20260902001016 | 27 | 45 | 0.0 | 1.6 | 0.00 | 0.03 | 0.00 | 38 | 1022.9 |
| 20260902000017 | 27 | 39 | 0.0 | 8.0 | 0.00 | 0.03 | 0.00 | 37 | 1022.9 |
| 20260901235015 | 28 | 190 | 0.0 | 4.8 | 0.00 | 0.03 | 0.00 | 34 | 1022.8 |
| 20260901234035 | 28 | 0.0 | 0.0 | 0.00 | 0.03 | 0.00 | 33 | 1022.8 | |
| 20260901233015 | 29 | 86 | 0.0 | 3.2 | 0.00 | 0.03 | 0.00 | 31 | 1022.8 |
| 20260901232016 | 30 | 128 | 0.0 | 1.6 | 0.00 | 0.03 | 0.00 | 31 | 1022.7 |
| 20260901231016 | 30 | 262 | 0.0 | 1.6 | 0.00 | 0.03 | 0.00 | 31 | 1022.7 |
| 20260901230016 | 30 | 48 | 0.0 | 1.6 | 0.00 | 0.03 | 0.00 | 31 | 1022.7 |
| 20260901225017 | 30 | 253 | 0.0 | 3.2 | 0.00 | 0.03 | 0.00 | 30 | 1022.7 |
| 20260901224014 | 31 | 0.0 | 0.0 | 0.00 | 0.03 | 0.00 | 30 | 1022.8 | |
| 20260901223015 | 30 | 96 | 0.0 | 3.2 | 0.00 | 0.03 | 0.00 | 30 | 1022.9 |